Hourly Data Report for May 11, 2021

WINNIPEG THE FORKS
MANITOBA
Current Station Operator: ECCC - MSC

49°53'18.008" N
97°07'46.007" W
230.00 m
5023262
71579
XWN

Download Data

Hourly Data (May 2021)
Hourly Data Report for May 11, 2021
TIME
LST
Temp Definition
°C
Dew Point Definition
°C
Rel Hum Definition
%
Precip. Amount Definition
mm

Wind Dir Definition
10's deg

Wind Spd Definition
km/h
Visibility Definition
km
Stn Press Definition
kPa
Hmdx Definition


Wind Chill Definition


Weather Definition


00:00 6.4 -6.5 39 0.0   0   99.83     LegendNANA
01:00 5.4 -5.9 44 0.0 0 1   99.85     LegendNANA
02:00 4.9 -5.7 46 0.0 19 4   99.84     LegendNANA
03:00 4.5 -5.8 47 0.0 19 5   99.84     LegendNANA
04:00 4.0 -5.6 50 0.0 18 3   99.85     LegendNANA
05:00 3.8 -5.6 50 0.0 19 4   99.87     LegendNANA
06:00 5.2 -5.6 46 0.0 19 7   99.89     LegendNANA
07:00 6.7 -6.1 39 0.0 20 10   99.90     LegendNANA
08:00 8.9 -6.2 34 0.0 19 6   99.91     LegendNANA
09:00 11.9 -6.1 28 0.0 21 8   99.92     LegendNANA
10:00 14.2 -6.7 23 0.0 20 3   99.88     LegendNANA
11:00 15.3 -7.0 21 0.0 20 2   99.84     LegendNANA
12:00 15.9 -7.6 19 0.0 19 3   99.78     LegendNANA
13:00 17.2 -7.1 18 0.0 0 1   99.72     LegendNANA
14:00 17.8 -8.0 16 0.0 6 3   99.67     LegendNANA
15:00 19.0 -8.4 15 0.0   0   99.63     LegendNANA
16:00 19.2 -9.6 13 0.0 0 1   99.59     LegendNANA
17:00 20.0 -9.2 13 0.0 23 3   99.58     LegendNANA
18:00 19.2 -10.1 13 0.0   0   99.56     LegendNANA
19:00 18.3 -10.5 13 0.0   0   99.56     LegendNANA
20:00 17.2 -9.7 15 0.0   0   99.57     LegendNANA
21:00 15.3 -9.1 18 0.0   0   99.62     LegendNANA
22:00 14.5 -9.3 18 0.0   0   99.63     LegendNANA
23:00 13.4 -8.8 21 0.0 0 1   99.61     LegendNANA

Notes on Data Quality.

Legend

  • E = Estimated
  • M = Missing
  • NA = Not Available*
  • [empty] = Indicates an unobserved value
Date modified: